ONEWEB-0156

Last updated on April 25, 2021, 12:02 a.m. UTC

1 48052U 21025L   21114.58336806 -.01096083  00000-0 -55458-1 0  9994
2 48052  87.4182 339.3802 0010878 156.2591 190.5990 15.20144977  1781
UTC
Height (km)
Latitude
Longitude
Inclination
Orbital Period
UTC large
Height (km)
Speed (km/s)
/
Latitude / Longitude
Inclination (degrees)
Orbital Period (minutes)
Azimuth
Elevation
Range (km)
Doppler Factor
iOS Compass Heading
iOS Angle

Next 30 passes for location: Hong Kong

Rise time Rise Azimuth (degrees) Set time Set Azimuth (degrees) Duration Max altitude (degrees)

No matching passes for this satellites